User: anonymous   Login
Location: Unspecified
(0.0000°N, 0.0000°E)
Time: 19:24:46
(UTC+00:00)
Language:

OPTUS 1C - Orbit

View from above orbital plane
View from above orbital plane
View from above satellite
View from above satellite

Ground track
Ground track

The orbit data is extracted from the following two-line orbital elements,

1 27831U 03028B   17055.51426598 -.00000157  00000-0  00000+0 0  9995
2 27831   0.0329 162.7923 0002082 165.1110 167.7961  1.00272487 50232
Epoch (UTC): 24 February 2017 12:20:32
Eccentricity: 0.0002082
inclination: 0.0329°
perigee height: 35777 km
apogee height: 35795 km
right ascension of ascending node: 162.7923°
argument of perigee: 165.1110°
revolutions per day: 1.00272487
mean anomaly at epoch: 167.7961°
orbit number at epoch: 5023

The dashed part of the orbit path shows where the satellite is in the earth's shadow,  

DLR